This is the latest recevied weather packets stored in our database for station/object ON6OO-13. If no packets are shown the sender has not sent any weather packets the latest 10 day(s).
| Time | Temp. | Humidity | Pressure | Rain* | Wind** | Luminosity | Snow |
|---|---|---|---|---|---|---|---|
| 1777656278 | 25° C | 25% | 1012.5 hPa | 0 mm | - | - | - |
| 1777655366 | 25° C | 25% | 1012.8 hPa | 0 mm | - | - | - |
| 1777654454 | 25° C | 24% | 1012.8 hPa | 0 mm | - | - | - |
| 1777653543 | 25° C | 24% | 1012.5 hPa | 0 mm | - | - | - |
| 1777652630 | 25° C | 23% | 1012.8 hPa | 0 mm | - | - | - |
| 1777651718 | 25° C | 22% | 1013.2 hPa | 0 mm | - | - | - |
| 1777650806 | 25° C | 22% | 1012.8 hPa | 0 mm | - | - | - |
| 1777649894 | 25° C | 22% | 1012.8 hPa | 0 mm | - | - | - |
| 1777648982 | 25° C | 21% | 1013.2 hPa | 0 mm | - | - | - |
| 1777648070 | 25° C | 23% | 1013.5 hPa | 0 mm | - | - | - |
| 1777647158 | 24.44° C | 23% | 1013.5 hPa | 0 mm | - | - | - |
| 1777646246 | 24.44° C | 21% | 1013.5 hPa | 0 mm | - | - | - |
| 1777645334 | 24.44° C | 21% | 1013.5 hPa | 0 mm | - | - | - |
| 1777644422 | 23.89° C | 22% | 1013.5 hPa | 0 mm | - | - | - |
| 1777643510 | 23.89° C | 22% | 1013.8 hPa | 0 mm | - | - | - |
| 1777642598 | 23.33° C | 23% | 1014.2 hPa | 0 mm | - | - | - |
| 1777641686 | 23.33° C | 23% | 1014.5 hPa | 0 mm | - | - | - |
| 1777640774 | 22.78° C | 24% | 1014.5 hPa | 0 mm | - | - | - |
| 1777639862 | 22.78° C | 22% | 1014.2 hPa | 0 mm | - | - | - |
| 1777638950 | 22.22° C | 25% | 1014.5 hPa | 0 mm | - | - | - |
| 1777638038 | 22.22° C | 23% | 1015.2 hPa | 0 mm | - | - | - |
| 1777637126 | 21.67° C | 24% | 1014.9 hPa | 0 mm | - | - | - |
| 1777636214 | 21.11° C | 24% | 1014.9 hPa | 0 mm | - | - | - |
| 1777635302 | 21.11° C | 26% | 1015.2 hPa | 0 mm | - | - | - |
| 1777634390 | 20.56° C | 29% | 1015.5 hPa | 0 mm | - | - | - |
* Rain latest hour (hover to see other rain measurements)
** Current wind speed in m/s (hover to see current wind gust speed)